P/2014 A3 ( PanSTARRS )

Japanese version
Home page
Updated on July 20, 2015

---------------------------------------------------------------------

* Profile

Discovery Date January 9, 2014
Magnitude 21.1 mag
Discoverer Pan-STARRS 1 telescope (Haleakala)

* Pictures

* Orbital Elements

Epoch 2013 Apr. 18.0 TT = JDT 2456400.5
T 2013 Apr. 21.94297 TT                                 MPCW
q   3.5491125            (2000.0)            P               Q
n   0.09695826     Peri.  213.58536     +0.11053408     -0.97679530
a   4.6925924      Node   230.77079     +0.95601458     +0.15495527
e   0.2436777      Incl.   13.69908     +0.27169531     -0.14785063
P  10.2
From 54 observations 2014 Jan. 9-2015 Feb. 23, mean residual 0".3.

* Magnitudes Graph

        m1 = 12.0 + 5 log d + 10.0 log r

---------------------------------------------------------------------

The orbital elements are published on M.P.E.C. 2015-E14.
The magnitudes graphs are made with Comet for Windows.

---------------------------------------------------------------------

Copyright(C) Seiichi Yoshida (comet@aerith.net). All rights reserved.